Погода в Кетапанге

Индонезия     1°50′39″S   109°58′14″E
темп.,
°C
ветер,
м/с
пор.,
м/с
влажн.,
%
обл.,
%
осадки,
мм/ч
давл.,
гПа
погр.,
м
2 марта, вт
вт201:00+26ссз468340 0.0 1010408
04:00+25с358432 0.0 1009292
07:00+27с357849 0.0 1011391
10:00+29сз446746 0.0 1012711
13:00+30зсз457035 1.6 1009584
16:00+29зсз4573100 0.3 1007652
19:00+27зсз4786100 0.9 1009383
22:00+27зсз4888100 2.9 1011357
3 марта, ср
ср301:00+26сз5886100 7.8 1010438
04:00+26сз4787100 2.3 1009330
07:00+25с5892100 7.5 1012339
10:00+25св3593100 1.1 1013300
13:00+28всв2369100 1.1 1009409
16:00+28вюв2370100 0.0 1008229
19:00+26юв1177100 0.0 1010120
22:00+25ююв2284100 0.0 1012104
4 марта, чт
чт401:00+24ююв1188100 0.0 101185
04:00+24в119072 0.0 1010101
07:00+25вюв128664 0.3 1012121
10:00+29юз237137 1.3 1012716
13:00+30юз446457 1.3 1009826
16:00+29юз456714 0.0 1008672
19:00+27юз35807 0.0 1010308
22:00+26ю2383100 0.1 1012248
5 марта, пт
пт501:00+25юв1288100 0.1 1011150
04:00+24вюв2292100 0.0 1010137
07:00+25в2287100 0.1 1012110
10:00+31св0159100 0.0 1012723
13:00+31з4358100 0.0 1009820
16:00+29з346298 0.0 1007450
19:00+27зюз247978 0.1 1009188
22:00+26ссз1281100 0.3 1011225
6 марта, сб
сб601:00+26с128398 0.4 1010282
04:00+25ссв128699 0.0 1009295
07:00+26св228590 0.0 1011199
10:00+30сз226669 0.0 1011789
13:00+30з446884 0.6 1008562
16:00+29з3470100 0.7 1007501
19:00+27з3583100 1.2 1009220
22:00+27з358692 1.9 1010224